Regional Weather Roundup
Issued by NWS

Home | Current Version | Previous Version | Graphics & Text | Print | Product List | Glossary On
Versions: 1 2 3 4 5 6 7 8 9 10 11 12 13 14 15 16 17 18 19 20 21 22 23 24 25 26 27 28 29 30 31 32 33 34 35 36 37 38 39 40 41 42 43 44 45 46 47 48 49 50
000
ASUS43 KLOT 240012
RWRIL

ILLINOIS REGIONAL WEATHER ROUNDUP
NATIONAL WEATHER SERVICE CHICAGO/ROMEOVILLE IL
600 PM CST THU FEB 23 2017

NOTE: "FAIR" INDICATES FEW OR NO CLOUDS BELOW 12,000 FEET WITH NO
SIGNIFICANT WEATHER AND/OR OBSTRUCTIONS TO VISIBILITY.

* THESE STATIONS ARE NOT UNDER NWS QUALITY CONTROL. THEY ALSO MAY NOT
  REPORT WEATHER SUCH AS PRECIPITATION OR FOG.

ILZ001-002-007-009-015-016-024-240100-
NORTHWEST ILLINOIS

CITY           SKY/WX    TMP DP  RH WIND       PRES   REMARKS
MOLINE         RAIN      48  42  80 E22G28    29.63S
                                      6HR PCP:  0.10;

STERLING*      CLOUDY    41  39  93 E22       29.70S
SAVANNA*       CLOUDY    42  38  87 E17G26    29.71R
$$

ILZ003-004-008-010-011-017-018-240100-
NORTH CENTRAL ILLINOIS

CITY           SKY/WX    TMP DP  RH WIND       PRES   REMARKS
ROCKFORD       CLOUDY    39  34  82 E18G28    29.75F WCI  30
6HR MIN TEMP:  39; 6HR MAX TEMP:  49; 6HR PCP:  0.03;

FREEPORT*      CLOUDY    37  36  93 NE18      29.74F WCI  27
ROCHELLE*      CLOUDY    38  36  91 E22G29    29.73S WCI  28
DE KALB*       CLOUDY    37  35  92 E20G25    29.74F WCI  27
PERU*          RAIN      41  38  90 E16G24    29.70F
$$

ILZ005-006-012>014-019>023-240100-
NORTHEAST ILLINOIS

CITY           SKY/WX    TMP DP  RH WIND       PRES   REMARKS
CHICAGO-OHARE  LGT RAIN  38  34  85 NE20G29   29.77F WCI  28
6HR MIN TEMP:  38; 6HR MAX TEMP:  44; 6HR PCP:  0.01;

CHICAGO-MIDWAY LGT RAIN  38  34  85 NE14      29.78F WCI  30
6HR MIN TEMP:  38; 6HR MAX TEMP:  47; 6HR PCP:  0.04;

AURORA         CLOUDY    39  35  86 NE21      29.73F WCI  29
6HR MIN TEMP:  39; 6HR MAX TEMP:  51; 6HR PCP:  0.07;

LANSING*       LGT RAIN  38  37  99 NE16      29.78F WCI  28
JOLIET*        CLOUDY    40  38  93 NE14      29.74F
WAUKEGAN       CLOUDY    36  32  85 NE8       29.81F WCI  30
6HR MIN TEMP:  36; 6HR MAX TEMP:  41; 6HR PCP: TRACE;

DUPAGE AIRPORT LGT RAIN  37  33  85 E15       29.75F WCI  28
6HR MIN TEMP:  37; 6HR MAX TEMP:  45; 6HR PCP:  0.03;

KANKAKEE*      CLOUDY    40  38  93 NE12      29.75S
WHEELING       CLOUDY    36  33  89 NE15G24   29.79F WCI  27
6HR MIN TEMP:  36; 6HR MAX TEMP:  41; 6HR PCP: TRACE;

MORRIS*        LGT RAIN  40  37  90 E14       29.73S
ROMEOVILLE*    CLOUDY    38  38 100 NE17      29.74F WCI  28
NORTHERLY ISL    N/A     37  35  92 NE15        N/A  WCI  28
$$

LMZ740>746-240100-
SOUTHERN LAKE MICHIGAN

STATION/POSITION SKY/WX   TEMP    WIND        PRES    VSBY  WAVE
                          AIR SEA DIR/SP/G                  HT/PER
                          (F)     (DEG/KT/KT) (MB)    (MI)  (FT/S)
HARRISON CRIB              37      20/ 18/ 20   N/A
BURNHAM HARBOR             37      20/ 10/ 17   N/A
CALUMET HARBOR             37      20/ 10/ 14 1008.6F
BURNS HARBOR               37      30/ 13/ 15 1009.5F
MICHIGAN CITY              36     360/ 12/ 14   N/A
$$

ILZ025>027-034>036-040-047-049-050-058-095>099-240100-
WEST-CENTRAL ILLINOIS

CITY           SKY/WX    TMP DP  RH WIND       PRES   REMARKS
QUINCY         CLOUDY    54  48  82 E17       29.54F
GALESBURG*     DRIZZLE   48  46  91 E15G21    29.62R
MACOMB*        CLOUDY    50  48  93 E14       29.61S
JACKSONVILLE*  CLOUDY    56  52  88 E9        29.60R
PITTSFIELD*    MOCLDY    57  53  86 E8        29.59R
$$

ILZ028>032-037-038-041>044-048-051>054-059>061-240100-
CENTRAL ILLINOIS

CITY           SKY/WX    TMP DP  RH WIND       PRES   REMARKS
PONTIAC        DRIZZLE   44  43  98 E22G28    29.69F
BLOOMINGTON    CLOUDY    47  43  86 E20       29.68S
DECATUR        CLOUDY    61  53  75 SE7       29.65R
PEORIA         CLOUDY    49  45  86 E14       29.63F
6HR MIN TEMP:  49; 6HR MAX TEMP:  53; 6HR PCP:  0.01;

LACON*         LGT RAIN  44  43  95 E15G22    29.67S
LINCOLN*       CLOUDY    56  50  81 NE16G23   29.63F
SPRINGFIELD    CLOUDY    58  53  84 E9        29.61F HAZE
6HR MIN TEMP:  57; 6HR MAX TEMP:  60; 6HR PCP:  0.01;

TAYLORVILLE    CLOUDY    62  54  74 SE7       29.61S
6HR MIN TEMP:  58; 6HR MAX TEMP:  64;

$$

ILZ033-039-045-046-055>057-062-063-240100-
EAST-CENTRAL ILLINOIS

CITY           SKY/WX    TMP DP  RH WIND       PRES   REMARKS
CHAMPAIGN      MOCLDY    59  52  77 NE12      29.66F
RANTOUL*       CLOUDY    55  49  79 NE14      29.68R
MATTOON        CLOUDY    63  55  75 SE8       29.65S
PARIS*         CLOUDY    62  55  78 SE7       29.68F
$$

ILZ079-100>102-240100-
SOUTHWEST ILLINOIS

CITY           SKY/WX    TMP DP  RH WIND       PRES   REMARKS
ALTON          MOCLDY    63  55  77 E10       29.58S
BELLEVILLE     CLOUDY    67  57  71 E12       29.57S
CAHOKIA*       MOCLDY    66  55  67 SE10      29.56F
SPARTA*        PTCLDY    67  55  63 S14G20    29.61R
$$

ILZ064>066-069>071-074>076-080>082-084>086-088>090-092>094-240100-
SOUTH-CENTRAL ILLINOIS

CITY           SKY/WX    TMP DP  RH WIND       PRES   REMARKS
CARBONDALE     PTCLDY    67  55  65 S12       29.62S
6HR MIN TEMP:  65; 6HR MAX TEMP:  71;

CAIRO*         CLEAR     68  55  64 SE7       29.65S
EFFINGHAM*     PTCLDY    64  55  70 E8        29.65F
MARION         MOCLDY    70  55  60 S101      29.64S
MT. VERNON     MOCLDY    66  54  65 SE6       29.64S
CENTRALIA*     CLOUDY    67  55  66 SE8       29.61F
SALEM*         CLOUDY    68  53  58 SE8       29.62F
METROPOLIS*    PTCLDY    69  56  62 CALM      29.67S
$$

ILZ067-068-072-073-078-083-087-091-240100-
SOUTHEAST ILLINOIS

CITY           SKY/WX    TMP DP  RH WIND       PRES   REMARKS
LAWRENCEVILLE  PTCLDY    61  54  77 S7        29.68S
FLORA*         PTCLDY    65  56  71 SE9       29.65S
FAIRFIELD*     PTCLDY    65  54  67 SE3       29.65S
HARRISBURG*    PTCLDY    65  56  72 S9        29.66S
ROBINSON*      MOCLDY    61  54  76 SE6       29.69R
CARMI*         PTCLDY    62  55  80 SE8       29.66S
$$

ABBREVIATIONS USED IN REMARKS
   TC - TEMPERATURE IN CELSIUS
  WCI - WIND CHILL INDEX
   HX - HEAT INDEX
  VSB - VISIBILITY
$$





USA.gov is the U.S. government's official web portal to all federal, state and local government web resources and services.